Location: Équennes
(49.7375°N, 1.9622°E)
Time: 01:02:54
(UTC+00:00)

Cosmos 1328 - Pass Details

Date: 28 January 2023
Orbit: 518 x 543 km, 82.5° (Epoch: 31 March)

Event Time Altitude Azimuth Distance (km) Brightness Sun altitude
Rises 18:40:00 0° 191° (S) 2,709 7.6 -19.3°
Reaches altitude 10° 18:42:10 10° 192° (SSW) 1,818 6.7 -19.6°
Maximum altitude 18:46:10 81° 280° (W) 560 3.8 -20.3°
Enters shadow 18:49:29 15° 8° (N) 1,537 6.0 -20.8°
